Medicine Lodge, KS

4:15 PM CDT on October 20, 2019 (GMT -0500)
Medicine Lodge

Weather History for KP28 - September, 2019

Change the Weather History Date:

Sunday, September 15, 2019

  Actual Average Record
Temperature  
Mean Temperature 83 °F 72 °F  
Max Temperature 97 °F 84 °F 105 °F (1978)
Min Temperature 69 °F 59 °F 33 °F (1993)
Degree Days  
Heating Degree Days 0 1  
Month to date heating degree days 0 3  
Since 1 July heating degree days 0 3  
Cooling Degree Days 18 7  
Month to date cooling degree days 224 144  
Year to date cooling degree days 1628 1655  
Growing Degree Days 32 (Base 50)    
Moisture  
Dew Point 61 °F    
Average Humidity 55    
Maximum Humidity 84    
Minimum Humidity 25    
Precipitation  
Precipitation 0.00 in 0.06 in 2.40 in (1996)
Month to date precipitation 0.03 1.11  
Year to date precipitation 26.50 21.46  
Snow  
Snow 0.00 in 0.00 in - ()
Month to date snowfall 0.0 0.0  
Since 1 July snowfall 0.0 0.0  
Since 1 September snowfall 0.0 0.0  
Snow Depth 0.00 in    
Sea Level Pressure  
Sea Level Pressure 30.01 in    
Wind  
Wind Speed 9 mph (South)    
Max Wind Speed 17 mph    
Max Gust Speed 25 mph    
T = Trace of Precipitation, MM = Missing Value Source: NWS Daily Summary

Daily Weather History Graph

Daily Weather History Graph

Search for Another Location

Airport or City:

Astronomy

Sep. 15, 2019 Rise Set
Actual Time 7:16 AM CDT 7:42 PM CDT
Civil Twilight 6:50 AM CDT 8:08 PM CDT
Nautical Twilight 6:19 AM CDT 8:39 PM CDT
Astronomical Twilight 5:47 AM CDT 9:10 PM CDT
Moon 8:52 PM CDT (9/15) 8:27 AM CDT (9/15)
Length of Visible Light 13h 18m
Length of Day
12h 26m
Full, 98% of the Moon is Illuminated
Sep 15
Full
Sep 21
Last Quarter
Sep 28
New
Oct 5
First Quarter
Oct 13
Full

Hourly Weather History & Observations

Time (CDT) Temp. Heat Index Dew Point Humidity Pressure Visibility Wind Dir Wind Speed Gust Speed Precip Events Conditions
12:56 AM 73.0 °F - 64.9 °F 76% 30.04 in - SSE 5.8 mph - N/A   Unknown
1:56 AM 73.0 °F - 64.9 °F 76% 30.04 in - SSE 4.6 mph - N/A   Unknown
2:56 AM 72.0 °F - 64.9 °F 78% 30.04 in - SSE 4.6 mph - N/A   Unknown
3:56 AM 71.1 °F - 64.9 °F 81% 30.03 in - SSE 6.9 mph - N/A   Unknown
4:56 AM 71.1 °F - 64.0 °F 78% 30.03 in - SE 6.9 mph - N/A   Unknown
6:56 AM 69.1 °F - 64.0 °F 84% 30.05 in - SSE 4.6 mph - N/A   Unknown
7:56 AM 70.0 °F - 63.0 °F 78% 30.05 in - SE 4.6 mph - N/A   Unknown
8:56 AM 73.9 °F - 63.0 °F 68% 30.06 in - South 8.1 mph - N/A   Unknown
9:56 AM 78.1 °F - 64.0 °F 62% 30.06 in - South 8.1 mph - N/A   Unknown
10:56 AM 84.9 °F 85.9 °F 63.0 °F 48% 30.05 in - SSW 11.5 mph - N/A   Unknown
11:56 AM 91.0 °F 90.5 °F 60.1 °F 35% 30.04 in - SW 12.7 mph 19.6 mph N/A   Unknown
12:56 PM 93.0 °F 92.7 °F 60.1 °F 33% 30.02 in - SW 12.7 mph 19.6 mph N/A   Unknown
1:56 PM 95.0 °F 93.7 °F 57.0 °F 28% 30.00 in - South 11.5 mph 25.3 mph N/A   Unknown
2:56 PM 96.1 °F 94.5 °F 55.9 °F 26% 29.98 in - South 13.8 mph 23.0 mph N/A   Unknown
3:56 PM 95.0 °F 93.7 °F 57.0 °F 28% 29.96 in - SW 11.5 mph 21.9 mph N/A   Unknown
4:56 PM 95.0 °F 93.4 °F 55.9 °F 27% 29.94 in - SSW 11.5 mph - N/A   Unknown
5:56 PM 93.9 °F 92.6 °F 57.0 °F 29% 29.95 in - South 15.0 mph 23.0 mph N/A   Unknown
6:56 PM 90.0 °F 88.8 °F 57.9 °F 34% 29.95 in - South 10.4 mph - N/A   Unknown
7:56 PM 84.9 °F 84.4 °F 59.0 °F 41% 29.96 in - SSE 8.1 mph - N/A   Unknown
8:56 PM 82.9 °F 83.2 °F 60.1 °F 46% 29.97 in - South 9.2 mph - N/A   Unknown
9:56 PM 80.1 °F 80.9 °F 60.1 °F 50% 29.99 in - South 6.9 mph - N/A   Unknown
10:56 PM 78.1 °F - 61.0 °F 56% 30.00 in - SSE 5.8 mph - N/A   Unknown
11:56 PM 75.9 °F - 62.1 °F 62% 30.01 in - SSE 4.6 mph - N/A   Unknown